NOAA 16 DEB, 42421

Orbit data source: Space-Track

NOAA 16 DEB, 42421 is space debris in SSO originally from a launch on Thu, 21 Sep 2000 UTC launched from the Air Force Western Test Range (AFWTR). Debris objects in space refer to the collection of defunct objects orbiting the Earth. Examples of debris include non-operational satellites, rocket bodies, and fragments generated from explosions, collisions, or faulty payload assembly.

Loading next visibility...
Identifier
42421, 2000-055TR
Orbit
SSO
Country
Flag of USUS
Related business
Manufacturer
Unknown
Mission
Spacecraft
Bus & Motor
Unknown
Mass
Unknown
Launch date (UTC)
2000-09-21 (26 years ago)
Launch vehicle
Unknown
Launch site
Air Force Western Test Range (AFWTR)
Object type
Payload
Rocket body
Debris
Shape & HBR
Unknown shape, 0.1 m
Radar Cross Section
Small (<0.1 m²)

Expand to show TLE details & history
Last TLE update: 3 days ago

TLE from 3 days ago
0 NOAA 16 DEB
1 42421U 00055TR  26122.18673298  .00002691  00000-0  15463-2 0  9999
2 42421  98.8908 100.4466 0077508 223.0723 136.4364 14.08632556483882
Epoch: 2026-05-02T04:28Z
TLE epoch observation values (Epoch: 2026-05-02T04:28:53.729Z)
Latitude
-0.00009°
Longitude
173.1145°
Altitude
907.835 km
Speed
7.377 km/s
True Right ascension
06h 41m 47s
True Declination
0° 00' 00"
Sunlit
Object was in daylight at epoch
Visualization orbit readout
Latitude
Unknown
Longitude
Unknown
Altitude
Unknown
Speed
Unknown
Apparent Right ascension
Unknown
Apparent Declination
Unknown
Sunlit
N/A
Visualization observer readout
Local Sidereal Time
02:01:12
Azimuth
Unknown
Elevation
Unknown
Doppler factor
Unknown
Orbital elements
Apogee altitude
917.348 km
Perigee altitude
805.126 km
Semi-major axis
7,239.374 km
Eccentricity
0.00775
Inclination
98.8908°
RAAN
100.4466°
Arg. of periapsis
223.0723°
True anomaly
137.04422°
Mean anomaly
136.4364°
Eccentric anomaly
136.74073°
Mean motion
3.52364 °/min
Orbital period
102.17 mins
BSTAR
0.0015463
Loading maneuver chart data...
Computing Atmospheric mass density...
Loading historical data...
Loading historical data...
Loading historical data...
Loading historical data...
Loading historical data...
Loading historical data...
Loading historical data...

Documentation

Showing up to 5 results
|